Location: La Bilong�re
(48.1297°N, 1.4584°W)
Time: 08:10:51
(UTC+00:00)

Cosmos 1000 Rocket - Pass Details

Date: 03 March 2021
Orbit: 954 x 991 km, 82.9° (Epoch: 11 April)

Event Time Altitude Azimuth Distance (km) Brightness Sun altitude
Rises 20:39:56 0° 351° (N) 3,689 7.9 -28.0°
Reaches altitude 10° 20:42:27 10° 352° (N) 2,742 7.2 -28.4°
Enters shadow 20:48:33 80° 48° (NE) 1,006 4.4 -29.3°
